Garden City, KS

4:55 PM CST on November 23, 2017 (GMT -0600)
Garden City Regional

Weather History for KGCK - June, 2013

Change the Weather History Date:

Sunday, June 16, 2013

  Actual Average Record
Temperature  
Mean Temperature 77 °F 73 °F  
Max Temperature 91 °F 86 °F 104 °F (1978)
Min Temperature 62 °F 60 °F 42 °F (1981)
Degree Days  
Heating Degree Days 0 0  
Month to date heating degree days 12 14  
Since 1 June heating degree days 12 14  
Since 1 July heating degree days 5211 5205  
Cooling Degree Days 12 9  
Month to date cooling degree days 170 107  
Year to date cooling degree days 317 196  
Since 1 June cooling degree days 170 107  
Growing Degree Days 26 (Base 50)    
Moisture  
Dew Point 59 °F    
Average Humidity 61    
Maximum Humidity 90    
Minimum Humidity 32    
Precipitation  
Precipitation 0.61 in 0.12 in 2.51 in (1955)
Month to date precipitation 1.89 1.84  
Year to date precipitation 3.46 8.78  
Sea Level Pressure  
Sea Level Pressure 29.94 in    
Wind  
Wind Speed 13 mph (NW)    
Max Wind Speed 54 mph    
Max Gust Speed 70 mph    
Visibility 9 miles    
Events Fog , Rain , Thunderstorm    
T = Trace of Precipitation, MM = Missing Value Source: NWS Daily Summary

Daily Weather History Graph

Daily Weather History Graph

Search for Another Location

Airport or City:

Trip Planner

Search our weather history database for the weather conditions in past years. The results will help you decide how hot, cold, wet, or windy it might be!

Date:

Astronomy

Jun. 16, 2013 Rise Set
Actual Time 6:20 AM CDT 9:07 PM CDT
Civil Twilight 5:48 AM CDT 9:38 PM CDT
Nautical Twilight 5:09 AM CDT 10:18 PM CDT
Astronomical Twilight 4:24 AM CDT 11:02 PM CDT
Moon 1:50 PM CDT (6/16) 1:19 AM CDT (6/16)
Length of Visible Light 15h 50m
Length of Day
14h 47m
Waxing Crescent, 50% of the Moon is Illuminated
Jun 16
Waxing Crescent
Jun 16
First Quarter
Jun 23
Full
Jun 29
Last Quarter
Jul 8
New

Hourly Weather History & Observations

Time (CDT) Temp. Heat Index Dew Point Humidity Pressure Visibility Wind Dir Wind Speed Gust Speed Precip Events Conditions
12:11 AM 62.6 °F - 60.8 °F 94% 30.07 in 7.0 mi North 31.1 mph 41.4 mph 0.06 in Rain , Thunderstorm Light Thunderstorms and Rain
12:54 AM 64.0 °F - 59.0 °F 84% 29.94 in 10.0 mi NE 27.6 mph 36.8 mph 0.12 in Rain , Thunderstorm Light Thunderstorms and Rain
1:39 AM 64.4 °F - 60.8 °F 88% 29.95 in 10.0 mi ENE 31.1 mph 41.4 mph 0.01 in   Scattered Clouds
1:54 AM 64.9 °F - 59.0 °F 81% 29.85 in 10.0 mi East 23.0 mph 38.0 mph 0.01 in   Clear
2:54 AM 64.9 °F - 57.0 °F 75% 29.94 in 10.0 mi East 15.0 mph - N/A   Partly Cloudy
3:54 AM 64.0 °F - 55.9 °F 75% 29.94 in 10.0 mi East 11.5 mph - N/A   Scattered Clouds
4:54 AM 63.0 °F - 55.9 °F 78% 29.92 in 10.0 mi SE 15.0 mph - N/A   Clear
5:54 AM 63.0 °F - 57.9 °F 84% 29.93 in 10.0 mi SSE 8.1 mph - N/A   Clear
6:54 AM 62.1 °F - 59.0 °F 90% 29.91 in 10.0 mi SSE 8.1 mph - N/A   Clear
7:54 AM 64.0 °F - 60.1 °F 87% 29.91 in 10.0 mi WSW 8.1 mph - N/A   Clear
8:54 AM 68.0 °F - 59.0 °F 73% 29.92 in 10.0 mi West 17.3 mph - N/A   Clear
9:54 AM 69.1 °F - 59.0 °F 70% 29.94 in 10.0 mi West 11.5 mph - N/A   Clear
10:54 AM 75.9 °F - 61.0 °F 60% 29.95 in 10.0 mi West 12.7 mph - N/A   Clear
11:54 AM 79.0 °F - 59.0 °F 50% 29.97 in 10.0 mi West 12.7 mph 18.4 mph N/A   Clear
12:54 PM 81.0 °F 81.6 °F 60.1 °F 49% 29.96 in 10.0 mi WSW 10.4 mph - N/A   Clear
1:54 PM 84.0 °F 83.8 °F 59.0 °F 43% 29.94 in 10.0 mi West 11.5 mph 16.1 mph N/A   Clear
2:54 PM 86.0 °F 85.0 °F 57.9 °F 38% 29.92 in 10.0 mi Variable 5.8 mph - N/A   Clear
3:54 PM 88.0 °F 86.5 °F 55.9 °F 34% 29.89 in 10.0 mi SW 6.9 mph - N/A   Clear
4:54 PM 89.1 °F 87.3 °F 55.9 °F 32% 29.85 in 10.0 mi SSW 4.6 mph - N/A   Clear
5:54 PM 90.0 °F 88.1 °F 55.9 °F 31% 29.83 in 10.0 mi SE 9.2 mph - N/A   Scattered Clouds
6:54 PM 87.1 °F 86.7 °F 60.1 °F 40% 29.81 in 10.0 mi SE 15.0 mph - N/A   Clear
7:54 PM 82.9 °F 83.3 °F 61.0 °F 47% 29.82 in 10.0 mi SSE 11.5 mph - N/A   Clear
8:50 PM 80.6 °F 81.8 °F 62.6 °F 54% 29.98 in 10.0 mi WSW 31.1 mph 50.6 mph N/A Thunderstorm Squalls
8:54 PM 73.9 °F - 55.9 °F 53% 29.91 in 9.0 mi West 31.1 mph 50.6 mph N/A Thunderstorm Unknown
9:00 PM 64.4 °F - 57.2 °F 77% 30.00 in 1.2 mi WNW 44.9 mph 61.0 mph 0.15 in Rain , Thunderstorm Thunderstorms and Rain
9:03 PM 62.6 °F - 59.0 °F 88% 29.99 in 0.5 mi WNW 51.8 mph 70.2 mph 0.23 in Fog , Rain , Thunderstorm Heavy Thunderstorms and Rain
9:17 PM 64.4 °F - 62.6 °F 94% 30.01 in 2.0 mi NW 27.6 mph 47.2 mph 0.39 in Rain , Thunderstorm Heavy Thunderstorms and Rain
9:26 PM 64.4 °F - 62.6 °F 94% 30.02 in 4.0 mi NW 36.8 mph 47.2 mph 0.42 in Rain , Thunderstorm Thunderstorms and Rain
9:54 PM 64.0 °F - 60.1 °F 87% 30.00 in 4.0 mi North 28.8 mph 41.4 mph 0.53 in Rain , Thunderstorm Heavy Rain
10:07 PM 62.6 °F - 60.8 °F 94% 30.04 in 3.0 mi NNE 35.7 mph 50.6 mph 0.06 in Rain Heavy Rain
10:54 PM 66.0 °F - 59.0 °F 78% 29.96 in 10.0 mi North 18.4 mph 32.2 mph 0.07 in   Partly Cloudy
11:01 PM 66.2 °F - 57.2 °F 73% 30.04 in 10.0 mi NNE 23.0 mph 26.5 mph N/A   Clear
11:17 PM 66.2 °F - 59.0 °F 78% 30.01 in 10.0 mi NE 18.4 mph - N/A   Clear
11:54 PM 64.9 °F - 60.1 °F 84% 29.91 in 10.0 mi ENE 10.4 mph - N/A   Clear